Satellite: OKEAN-4 Catalog number: 23317 Epoch time: 09057.82652043 Element set: 839 Inclination: 082.5353 deg RA of node: 077.4772 deg Eccentricity: 0.0022795 Arg of perigee: 012.8556 deg Mean anomaly: 347.3253 deg Mean motion: 14.82677202 rev/day Decay rate: 1.99e-06 rev/day^2 Epoch rev: 77601 Checksum: 319
Satellite: NOAA-14 Catalog number: 23455 Epoch time: 09056.91601188 Element set: 0526 Inclination: 098.9185 deg RA of node: 134.9539 deg Eccentricity: 0.0010111 Arg of perigee: 142.9311 deg Mean anomaly: 217.2568 deg Mean motion: 14.13757570 rev/day Decay rate: 2.1e-07 rev/day^2 Epoch rev: 73020 Checksum: 287
Satellite: NOAA-15 Catalog number: 25338 Epoch time: 09056.88304356 Element set: 0830 Inclination: 098.5774 deg RA of node: 048.5714 deg Eccentricity: 0.0011158 Arg of perigee: 027.3064 deg Mean anomaly: 332.8686 deg Mean motion: 14.24746568 rev/day Decay rate: -6.6e-07 rev/day^2 Epoch rev: 56092 Checksum: 331
Satellite: RESURS Catalog number: 25394 Epoch time: 09056.94506355 Element set: 0152 Inclination: 098.3531 deg RA of node: 094.8830 deg Eccentricity: 0.0001448 Arg of perigee: 140.8118 deg Mean anomaly: 219.3164 deg Mean motion: 14.24180069 rev/day Decay rate: -3.3e-07 rev/day^2 Epoch rev: 55256 Checksum: 290
Satellite: FENGYUN1 Catalog number: 25730 Epoch time: 09057.84751652 Element set: 695 Inclination: 098.7459 deg RA of node: 031.3513 deg Eccentricity: 0.0022147 Arg of perigee: 167.8374 deg Mean anomaly: 192.3336 deg Mean motion: 14.07927049 rev/day Decay rate: 1.49e-06 rev/day^2 Epoch rev: 50479 Checksum: 325
Satellite: OKEAN-0 Catalog number: 25860 Epoch time: 09056.80945409 Element set: 609 Inclination: 097.7754 deg RA of node: 042.4790 deg Eccentricity: 0.0001216 Arg of perigee: 107.3717 deg Mean anomaly: 252.7622 deg Mean motion: 14.73560090 rev/day Decay rate: 2.3e-07 rev/day^2 Epoch rev: 51674 Checksum: 296
Satellite: NOAA-16 Catalog number: 26536 Epoch time: 09056.86932251 Element set: 0305 Inclination: 099.1762 deg RA of node: 057.8498 deg Eccentricity: 0.0009870 Arg of perigee: 230.7203 deg Mean anomaly: 129.3079 deg Mean motion: 14.12510246 rev/day Decay rate: -1.87e-06 rev/day^2 Epoch rev: 43458 Checksum: 317
Satellite: NOAA-17 Catalog number: 27453 Epoch time: 09056.91653095 Element set: 0314 Inclination: 098.4999 deg RA of node: 119.7521 deg Eccentricity: 0.0012774 Arg of perigee: 089.3416 deg Mean anomaly: 270.9221 deg Mean motion: 14.24043997 rev/day Decay rate: 1.98e-06 rev/day^2 Epoch rev: 34691 Checksum: 338
Satellite: NOAA-18 Catalog number: 28654 Epoch time: 09056.87821335 Element set: 0800 Inclination: 098.8978 deg RA of node: 001.0406 deg Eccentricity: 0.0013881 Arg of perigee: 320.7895 deg Mean anomaly: 039.2252 deg Mean motion: 14.11237447 rev/day Decay rate: 1.46e-06 rev/day^2 Epoch rev: 19425 Checksum: 313
Satellite: NOAA-19 Catalog number: 33591 Epoch time: 09057.18890263 Element set: 20 Inclination: 098.7347 deg RA of node: 005.9030 deg Eccentricity: 0.0013896 Arg of perigee: 194.9605 deg Mean anomaly: 165.1161 deg Mean motion: 14.10939085 rev/day Decay rate: 3.92e-06 rev/day^2 Epoch rev: 278 Checksum: 309
/EX SB KEPS @ AMSAT $ORB09057.M Orbital Elements 09057.MISC
HR AMSAT ORBITAL ELEMENTS FOR MANNED AND MISCELLANEOUS SATELLITES FROM WA5QGD FORT WORTH,TX February 26, 2009 Send Subscribe/unsubscribe to KEPS at http://www.amsat.org/mailman/listinfo/keps BID: ORB09057.M TO ALL RADIO AMATEURS BT
Satellite: HUBBLE Catalog number: 20580 Epoch time: 09056.50813846 Element set: 0341 Inclination: 028.4693 deg RA of node: 110.9055 deg Eccentricity: 0.0003925 Arg of perigee: 194.9821 deg Mean anomaly: 165.0650 deg Mean motion: 15.00457701 rev/day Decay rate: 2.69e-06 rev/day^2 Epoch rev: 83306 Checksum: 283
Satellite: PO-34 Catalog number: 25520 Epoch time: 09056.96622559 Element set: 0194 Inclination: 028.4609 deg RA of node: 279.6247 deg Eccentricity: 0.0005534 Arg of perigee: 170.3092 deg Mean anomaly: 189.7610 deg Mean motion: 15.17300787 rev/day Decay rate: 3.37e-06 rev/day^2 Epoch rev: 57174 Checksum: 322
Satellite: ISS Catalog number: 25544 Epoch time: 09057.73234905 Element set: 350 Inclination: 051.6401 deg RA of node: 152.6768 deg Eccentricity: 0.0009530 Arg of perigee: 067.2818 deg Mean anomaly: 069.5881 deg Mean motion: 15.71132499 rev/day Decay rate: 1.1144e-04 rev/day^2 Epoch rev: 58857 Checksum: 313
Satellite: CO-58 Catalog number: 28895 Epoch time: 09056.67799222 Element set: 0242 Inclination: 098.0733 deg RA of node: 310.3320 deg Eccentricity: 0.0017598 Arg of perigee: 340.2327 deg Mean anomaly: 019.8202 deg Mean motion: 14.59744548 rev/day Decay rate: 1.18e-06 rev/day^2 Epoch rev: 17746 Checksum: 328
Satellite: FALCON Catalog number: 30776 Epoch time: 09056.38381124 Element set: 0522 Inclination: 035.4337 deg RA of node: 057.7060 deg Eccentricity: 0.0001557 Arg of perigee: 008.1132 deg Mean anomaly: 351.9609 deg Mean motion: 15.03175360 rev/day Decay rate: 2.74e-06 rev/day^2 Epoch rev: 10826 Checksum: 268
Satellite: MAST Catalog number: 31126 Epoch time: 09056.65010985 Element set: 535 Inclination: 098.0038 deg RA of node: 116.4875 deg Eccentricity: 0.0093669 Arg of perigee: 266.0522 deg Mean anomaly: 092.9957 deg Mean motion: 14.53479327 rev/day Decay rate: -.00000000 rev/day^2 Epoch rev: 9883 Checksum: 313
Satellite: CAPE1 Catalog number: 31130 Epoch time: 09057.68095165 Element set: 537 Inclination: 098.0052 deg RA of node: 115.9030 deg Eccentricity: 0.0101695 Arg of perigee: 267.5248 deg Mean anomaly: 091.4300 deg Mean motion: 14.52035911 rev/day Decay rate: -4.0e-08 rev/day^2 Epoch rev: 9865 Checksum: 276
Satellite: COMPASS Catalog number: 32787 Epoch time: 09057.20695782 Element set: 290 Inclination: 097.9566 deg RA of node: 121.9078 deg Eccentricity: 0.0016674 Arg of perigee: 036.6157 deg Mean anomaly: 323.6191 deg Mean motion: 14.81553219 rev/day Decay rate: 2.95e-06 rev/day^2 Epoch rev: 4501 Checksum: 319
Satellite: AAUSAT2 Catalog number: 32788 Epoch time: 09057.72419051 Element set: 291 Inclination: 097.9567 deg RA of node: 122.4624 deg Eccentricity: 0.0016281 Arg of perigee: 035.8007 deg Mean anomaly: 324.4284 deg Mean motion: 14.81671824 rev/day Decay rate: -4.7e-07 rev/day^2 Epoch rev: 4509 Checksum: 306
Satellite: DO-64 Catalog number: 32789 Epoch time: 09057.74346119 Element set: 301 Inclination: 097.9612 deg RA of node: 122.5812 deg Eccentricity: 0.0016350 Arg of perigee: 034.2287 deg Mean anomaly: 325.9975 deg Mean motion: 14.81623779 rev/day Decay rate: 5.03e-06 rev/day^2 Epoch rev: 4509 Checksum: 319
Satellite: CO-66 Catalog number: 32791 Epoch time: 09057.37246540 Element set: 283 Inclination: 097.9592 deg RA of node: 122.1013 deg Eccentricity: 0.0016845 Arg of perigee: 034.2909 deg Mean anomaly: 325.9385 deg Mean motion: 14.81392192 rev/day Decay rate: 1.02e-06 rev/day^2 Epoch rev: 4500 Checksum: 298
Satellite: RS-30 Catalog number: 32953 Epoch time: 09056.79206119 Element set: 0241 Inclination: 082.5065 deg RA of node: 325.8918 deg Eccentricity: 0.0020245 Arg of perigee: 061.6356 deg Mean anomaly: 298.6759 deg Mean motion: 12.42999798 rev/day Decay rate: 1.0e-07 rev/day^2 Epoch rev: 03455 Checksum: 324
/EX
participants (1)
-
Ray Hoad